Location: Lombard
(41.8800°N, 88.0080°W)
Time: 23:34:01
(UTC-05:00)

Tiros 1 - Pass Details

Date: 01 February 2023
Orbit: 628 x 662 km, 48.4° (Epoch: 20 March)

Event Time Altitude Azimuth Distance (km) Brightness Sun altitude
Rises 05:21:11 0° 296° (WNW) 2,936 - -19.5°
Reaches altitude 10° 05:23:34 10° 301° (WNW) 2,031 - -19.0°
Exits shadow 05:26:08 30° 317° (NW) 1,141 8.0 -18.6°
Maximum altitude 05:28:08 53° 19° (NNE) 793 7.6 -18.2°
Drops below altitude 10° 05:32:46 10° 96° (E) 2,049 11.0 -17.3°
Sets 05:35:10 0° 101° (ESE) 2,964 12.4 -16.9°
